[[{"header":{"parameterUnit":"m.s-1","parameterCategory":1,"la1":30.2991,"la2":30.254,"lo1":-89.0895,"lo2":-89.0444,"dy":0.0017,"dx":0.0017,"nx":28,"ny":28,"refTime":"2025-05-25T03:00:00:Z","depth":0,"parameterNumber":2,"parameterNumberName":"U-component_of_WINDS"},"data":[0,0,0,0,0,0,0,0,0,0,0,0,0,0,0,0,0,0,0,0,0,0,0,0,0,0,0,0,0,0,0,0,0,0,0,0,0,0,0,0,0,0,0,0,0,0,0,0,0,0,0,0,0,0,0,0,0,0,0.6351,0.6351,0,0.6421,0.6422,0.6423,0.6459,0.6459,0.6459,0.6459,0.653,0.6532,0.6534,0,0,0,0,0,0,0,0,0,0,0,0,0,0.6247,0.6249,0.6351,0.6351,0.6352,0.6421,0.6422,0.6423,0.6459,0.6459,0.6459,0.6459,0.653,0.6532,0.6534,0,0,0,0,0,0,0,0,0,0,0,0,0,0.6302,0.625,0.635,0.6378,0.6382,0.6421,0.6422,0.6423,0.6459,0.6459,0.6459,0.6459,0.6529,0.6532,0.6534,0.6551,0,0,0.6543,0.6544,0,0,0,0,0,0,0,0,0.6299,0.6306,0.6373,0.6377,0.638,0.6431,0.6412,0.6466,0.6459,0.6429,0.6459,0.6459,0.6497,0.6503,0.6516,0.6554,0.6557,0.6543,0.6545,0.6546,0.6547,0,0,0,0,0,0,0,0.6295,0.6303,0.6378,0.6374,0.6379,0.6388,0.6396,0.6422,0.6462,0.6432,0.6435,0.6443,0.6499,0.6513,0.6518,0.6558,0.6543,0.6546,0.6547,0.6548,0.6615,0.6615,0,0,0,0,0,0,0.6287,0.63,0.6376,0.6381,0.6339,0.6389,0.6398,0.6415,0.6462,0.6469,0.6442,0.6444,0.6508,0.6514,0.652,0.6543,0.6546,0.6549,0.655,0.6615,0.6615,0.6615,0,0,0,0,0,0,0.6285,0.6294,0.6373,0.6341,0.6352,0.6391,0.6409,0.6416,0.643,0.647,0.6477,0.6449,0.6508,0.6516,0.6543,0.6546,0.655,0.6553,0.6614,0.6615,0.6615,0.6588,0,0,0,0,0,0,0.6282,0.6292,0.6299,0.6341,0.6353,0.6395,0.641,0.6417,0.6435,0.6437,0.6478,0.6485,0.6509,0.6539,0.6546,0.655,0.6555,0.6614,0.6615,0.6615,0.6589,0.6587,0.6586,0,0,0,0,0,0.6278,0.6288,0.6299,0.6308,0.6362,0.6395,0.6402,0.643,0.6435,0.6442,0.6468,0.6484,0.6545,0.6541,0.655,0.6554,0.6614,0.6614,0.6615,0.659,0.6588,0.6586,0,0,0,0,0,0,0.6245,0.6294,0.6307,0.6331,0.6359,0.6401,0.641,0.6427,0.6453,0.6454,0.6487,0.6496,0.652,0.654,0.6535,0.6573,0.6581,0.6583,0.6559,0.6558,0.6556,0.6551,0.6557,0,0,0,0,0,0.6241,0.6263,0.6305,0.6322,0.6336,0.637,0.6386,0.6405,0.6434,0.6446,0.6474,0.6502,0.6528,0.6544,0.657,0.6592,0.6602,0.66,0.6598,0.6597,0.6598,0.6613,0.6612,0.6615,0.6615,0.6615,0,0,0.6232,0.6261,0.6273,0.6316,0.634,0.6363,0.638,0.6403,0.642,0.645,0.6477,0.6498,0.6532,0.6557,0.6569,0.6574,0.66,0.6597,0.6596,0.6598,0.6613,0.6612,0.6612,0.6615,0.6615,0.6615,0,0,0.6227,0.6252,0.6269,0.6293,0.6329,0.6352,0.6356,0.6396,0.6412,0.644,0.6463,0.6484,0.6527,0.6551,0.6568,0.6574,0.659,0.6581,0.6573,0.6587,0.6587,0.6587,0.6589,0.659,0.6582,0.6582,0.6582,0,0.6211,0.6246,0.6276,0.6298,0.6317,0.6345,0.6364,0.6385,0.6427,0.6439,0.6444,0.65,0.6525,0.6556,0.6558,0.6571,0.6577,0.6577,0.6585,0.6585,0.6585,0.6588,0.6589,0.6581,0.6581,0.6581,0.6581,0,0.6225,0.6249,0.6259,0.63,0.632,0.634,0.6373,0.6389,0.6407,0.643,0.6459,0.649,0.6523,0.6531,0.6549,0.6566,0.6568,0.6578,0.6587,0.6583,0.6586,0.6588,0.6579,0.658,0.658,0.658,0,0,0.6201,0.6259,0.6262,0.6281,0.6323,0.6343,0.6364,0.6397,0.6411,0.6439,0.6458,0.6495,0.6506,0.6525,0.6546,0.6558,0.6561,0.6567,0.6568,0.6565,0.6582,0.6574,0.6575,0.6572,0.6572,0.6573,0.658,0,0.6202,0.6243,0.6271,0.63,0.6323,0.6351,0.637,0.6398,0.6421,0.6444,0.6468,0.6494,0.6506,0.6518,0.6531,0.6558,0.6565,0.6558,0.6591,0.6591,0.6581,0.6576,0.6568,0.6573,0.6581,0.6581,0.6581,0,0.6209,0.6237,0.6269,0.631,0.632,0.6337,0.637,0.6391,0.6424,0.644,0.6463,0.6484,0.6508,0.6515,0.655,0.6544,0.6559,0.6575,0.6576,0.658,0.6586,0.658,0.6575,0.6576,0.6584,0.6583,0.6583,0,0.6188,0.6234,0.626,0.6275,0.6323,0.6334,0.6355,0.6388,0.6406,0.6435,0.6447,0.6478,0.6495,0.6519,0.6548,0.655,0.658,0.6589,0.6594,0.6593,0.6599,0.6598,0.6596,0.6608,0.6608,0.6608,0.6608,0,0.6187,0.6205,0.6251,0.6266,0.6288,0.6321,0.6342,0.6365,0.6394,0.6415,0.6441,0.646,0.6497,0.6521,0.6544,0.6569,0.6577,0.659,0.6596,0.6588,0.6586,0.6598,0.6599,0.6609,0.6609,0.6609,0.6608,0,0.6167,0.6198,0.6228,0.6271,0.6283,0.6297,0.6334,0.6351,0.6375,0.6401,0.6409,0.6447,0.6477,0.6508,0.6548,0.6564,0.6588,0.6597,0.6577,0.6581,0.6584,0.6583,0.6589,0.6592,0.6602,0.6602,0.6602,0,0.6164,0.6179,0.6224,0.624,0.626,0.6285,0.6305,0.6338,0.6356,0.6396,0.6407,0.6439,0.6466,0.6511,0.6543,0.6574,0.6583,0.6583,0.6588,0.6579,0.6584,0.6582,0.6584,0.6581,0.6581,0.6581,0.6581,0,0.6155,0.617,0.6196,0.6229,0.6251,0.6278,0.6306,0.6317,0.6356,0.6376,0.6407,0.6427,0.6469,0.65,0.6535,0.6557,0.6575,0.6579,0.6582,0.6574,0.6562,0.6569,0.6573,0.6579,0.6579,0.6579,0.6579,0.6579,0.6144,0.6159,0.6193,0.6222,0.6247,0.6273,0.6291,0.6318,0.6344,0.638,0.6398,0.6429,0.6463,0.6512,0.6533,0.6558,0.6563,0.6567,0.6568,0.6569,0.6567,0.6558,0.6564,0.6564,0.6564,0.6564,0.6564,0,0.6136,0.616,0.6187,0.6225,0.6248,0.6265,0.6297,0.6315,0.6342,0.6372,0.6398,0.6434,0.6464,0.6499,0.6531,0.6545,0.6554,0.6552,0.6552,0.6556,0.656,0.6554,0.6544,0.6544,0.6544,0.6544,0.6544,0.6544,0.6135,0.6162,0.6181,0.622,0.6245,0.6275,0.6292,0.6316,0.6341,0.6379,0.6405,0.6428,0.646,0.6495,0.6524,0.6534,0.6545,0.654,0.6552,0.6554,0.6556,0.6558,0.6553,0.6542,0.6542,0.6547,0.6547,0.6547]},{"header":{"parameterUnit":"m.s-1","parameterCategory":1,"la1":30.2991,"la2":30.254,"lo1":-89.0895,"lo2":-89.0444,"dy":0.0017,"dx":0.0017,"nx":28,"ny":28,"refTime":"2025-05-25T03:00:00:Z","depth":0,"parameterNumber":3,"parameterNumberName":"V-component_of_WINDS"},"data":[0,0,0,0,0,0,0,0,0,0,0,0,0,0,0,0,0,0,0,0,0,0,0,0,0,0,0,0,0,0,0,0,0,0,0,0,0,0,0,0,0,0,0,0,0,0,0,0,0,0,0,0,0,0,0,0,0,0,0.2782,0.2782,0,0.2791,0.2791,0.2791,0.2797,0.2797,0.2797,0.2797,0.2806,0.2806,0.2806,0,0,0,0,0,0,0,0,0,0,0,0,0,0.277,0.277,0.2782,0.2782,0.2783,0.2791,0.2791,0.2791,0.2797,0.2797,0.2797,0.2797,0.2806,0.2806,0.2806,0,0,0,0,0,0,0,0,0,0,0,0,0,0.2777,0.277,0.2782,0.2786,0.2787,0.2791,0.2791,0.2791,0.2797,0.2797,0.2797,0.2797,0.2806,0.2806,0.2806,0.2808,0,0,0.2808,0.2808,0,0,0,0,0,0,0,0,0.2776,0.2777,0.2785,0.2786,0.2786,0.2793,0.279,0.2797,0.2797,0.2793,0.2797,0.2797,0.2802,0.2802,0.2804,0.2808,0.2809,0.2808,0.2808,0.2808,0.2808,0,0,0,0,0,0,0,0.2776,0.2777,0.2786,0.2786,0.2786,0.2788,0.2788,0.2792,0.2797,0.2793,0.2794,0.2794,0.2802,0.2804,0.2804,0.2809,0.2808,0.2808,0.2808,0.2808,0.2815,0.2815,0,0,0,0,0,0,0.2775,0.2777,0.2786,0.2786,0.2781,0.2788,0.2789,0.2791,0.2797,0.2798,0.2794,0.2795,0.2803,0.2804,0.2804,0.2806,0.2808,0.2808,0.2808,0.2815,0.2815,0.2815,0,0,0,0,0,0,0.2775,0.2776,0.2785,0.2781,0.2783,0.2788,0.279,0.2791,0.2793,0.2798,0.2799,0.2795,0.2803,0.2804,0.2807,0.2807,0.2808,0.2809,0.2815,0.2815,0.2815,0.281,0,0,0,0,0,0,0.2774,0.2776,0.2776,0.2781,0.2783,0.2787,0.279,0.2791,0.2793,0.2793,0.2799,0.28,0.2803,0.2806,0.2807,0.2807,0.2809,0.2815,0.2815,0.2815,0.281,0.281,0.281,0,0,0,0,0,0.2774,0.2775,0.2776,0.2777,0.2784,0.2787,0.2788,0.2792,0.2793,0.2794,0.2797,0.28,0.2807,0.2807,0.2808,0.2808,0.2815,0.2815,0.2815,0.2811,0.281,0.281,0,0,0,0,0,0,0.2769,0.2775,0.2777,0.278,0.2783,0.2788,0.2789,0.2791,0.2795,0.2795,0.28,0.2801,0.2803,0.2806,0.2806,0.2809,0.2811,0.2811,0.2808,0.2807,0.2807,0.2806,0.2809,0,0,0,0,0,0.2769,0.2771,0.2776,0.2778,0.278,0.2784,0.2786,0.2788,0.2792,0.2793,0.2797,0.2801,0.2804,0.2806,0.2809,0.2811,0.2812,0.2811,0.2811,0.2811,0.2811,0.2812,0.2812,0.2814,0.2814,0.2814,0,0,0.2767,0.2771,0.2772,0.2777,0.278,0.2782,0.2785,0.2788,0.279,0.2794,0.2797,0.28,0.2804,0.2806,0.2808,0.2809,0.281,0.2811,0.281,0.2811,0.2812,0.2812,0.2811,0.2814,0.2814,0.2814,0,0,0.2766,0.2769,0.2771,0.2773,0.2778,0.2781,0.2781,0.2786,0.2788,0.2791,0.2794,0.2796,0.2801,0.2804,0.2806,0.2806,0.2808,0.2807,0.2805,0.2806,0.2806,0.2806,0.2805,0.2805,0.2807,0.2807,0.2807,0,0.2764,0.2767,0.2771,0.2773,0.2776,0.2779,0.2781,0.2784,0.2789,0.279,0.2791,0.2797,0.28,0.2804,0.2803,0.2805,0.2806,0.2806,0.2805,0.2805,0.2805,0.2805,0.2805,0.2806,0.2807,0.2807,0.2807,0,0.2764,0.2767,0.2768,0.2772,0.2775,0.2777,0.2781,0.2782,0.2785,0.2787,0.279,0.2794,0.2798,0.2799,0.2801,0.2802,0.2803,0.2805,0.2806,0.2805,0.2805,0.2804,0.2806,0.2806,0.2806,0.2806,0,0,0.2761,0.2767,0.2767,0.2769,0.2774,0.2776,0.2778,0.2782,0.2783,0.2787,0.2788,0.2793,0.2794,0.2796,0.2799,0.28,0.2799,0.2802,0.2802,0.2801,0.28,0.2799,0.2799,0.2801,0.2801,0.2801,0.28,0,0.276,0.2764,0.2767,0.277,0.2772,0.2776,0.2778,0.2781,0.2783,0.2786,0.2789,0.2791,0.2793,0.2795,0.2796,0.2799,0.2799,0.2799,0.2803,0.2803,0.2801,0.2799,0.2797,0.2797,0.28,0.28,0.28,0,0.276,0.2763,0.2766,0.277,0.2771,0.2773,0.2776,0.2778,0.2782,0.2784,0.2786,0.2789,0.2791,0.2793,0.2796,0.2796,0.2797,0.2799,0.2799,0.28,0.2801,0.2799,0.2796,0.2796,0.28,0.28,0.28,0,0.2757,0.2761,0.2764,0.2765,0.277,0.2771,0.2774,0.2777,0.2779,0.2782,0.2783,0.2787,0.2788,0.2791,0.2794,0.2795,0.2797,0.2799,0.2799,0.2799,0.2799,0.2799,0.2796,0.28,0.28,0.28,0.28,0,0.2756,0.2757,0.2762,0.2764,0.2765,0.2769,0.2771,0.2773,0.2777,0.2779,0.2782,0.2784,0.2788,0.279,0.2793,0.2795,0.2796,0.2798,0.2798,0.2797,0.2797,0.2798,0.2799,0.28,0.28,0.28,0.28,0,0.2753,0.2756,0.2759,0.2763,0.2764,0.2766,0.2769,0.2771,0.2774,0.2776,0.2777,0.2781,0.2784,0.2788,0.2792,0.2794,0.2795,0.2796,0.2794,0.2794,0.2794,0.2794,0.2792,0.2792,0.2796,0.2796,0.2796,0,0.2752,0.2753,0.2758,0.2759,0.2761,0.2763,0.2765,0.2769,0.2771,0.2775,0.2776,0.2779,0.2781,0.2786,0.2789,0.2792,0.2793,0.2792,0.2794,0.2793,0.2793,0.2793,0.2793,0.2792,0.2792,0.2792,0.2792,0,0.275,0.2751,0.2754,0.2757,0.2759,0.2761,0.2764,0.2765,0.2769,0.2771,0.2774,0.2776,0.278,0.2783,0.2786,0.2788,0.2791,0.2791,0.2792,0.279,0.2789,0.279,0.2793,0.2791,0.2792,0.2792,0.2792,0.2792,0.2748,0.2749,0.2752,0.2755,0.2757,0.2759,0.2761,0.2764,0.2766,0.2769,0.2772,0.2774,0.2778,0.2782,0.2785,0.2787,0.2788,0.2788,0.2788,0.2788,0.2787,0.2789,0.2787,0.2787,0.2787,0.2787,0.2787,0,0.2746,0.2748,0.275,0.2754,0.2756,0.2758,0.2761,0.2762,0.2764,0.2767,0.277,0.2773,0.2776,0.2779,0.2782,0.2783,0.2784,0.2784,0.2784,0.2784,0.2786,0.2786,0.2783,0.2783,0.2783,0.2783,0.2783,0.2783,0.2745,0.2747,0.2749,0.2752,0.2754,0.2757,0.2758,0.276,0.2763,0.2766,0.2768,0.277,0.2774,0.2777,0.2779,0.278,0.2781,0.278,0.2782,0.2784,0.2784,0.2784,0.2784,0.2781,0.2781,0.2779,0.2779,0.2779]}]]